Time,TemperatureF,DewpointF,PressureIn,WindDirection,WindDirectionDegrees,WindSpeedMPH,WindSpeedGustMPH,Humidity,HourlyPrecipIn,Conditions,Clouds,dailyrainin,SoftwareType,DateUTC
2013-03-08 00:00:00,37.4,29.9,30.24,NNW,334,0.0,1.0,74,0.00,,SKC,0.00,VWS V14.01,2013-03-08 05:00:00,
2013-03-08 00:05:00,37.2,29.7,30.24,North,356,0.0,1.0,74,0.00,,SKC,0.00,VWS V14.01,2013-03-08 05:05:00,
2013-03-08 00:10:00,37.2,29.7,30.24,WNW,290,0.0,0.0,74,0.00,,SKC,0.00,VWS V14.01,2013-03-08 05:10:00,
2013-03-08 00:15:00,37.0,29.5,30.24,NW,305,0.0,0.0,74,0.00,,SKC,0.00,VWS V14.01,2013-03-08 05:15:00,
2013-03-08 00:20:00,37.0,29.5,30.24,NNW,327,0.0,4.0,74,0.00,,SKC,0.00,VWS V14.01,2013-03-08 05:20:00,
2013-03-08 00:25:00,36.8,29.3,30.24,NNW,338,0.0,2.0,74,0.00,,SKC,0.00,VWS V14.01,2013-03-08 05:25:00,
2013-03-08 00:30:00,36.8,29.6,30.24,NW,314,0.0,1.0,75,0.00,,SKC,0.00,VWS V14.01,2013-03-08 05:30:00,
2013-03-08 00:35:00,36.6,29.4,30.24,NW,314,0.0,0.0,75,0.00,,SKC,0.00,VWS V14.01,2013-03-08 05:35:00,
2013-03-08 00:40:00,36.4,29.2,30.24,West,281,0.0,1.0,75,0.00,,SKC,0.00,VWS V14.01,2013-03-08 05:40:00,
2013-03-08 00:45:00,36.2,29.0,30.24,West,281,0.0,0.0,75,0.00,,SKC,0.00,VWS V14.01,2013-03-08 05:45:00,
2013-03-08 00:50:00,36.0,29.2,30.24,WNW,284,0.0,1.0,76,0.00,,SKC,0.00,VWS V14.01,2013-03-08 05:50:00,
2013-03-08 00:55:00,35.9,29.1,30.24,NW,310,0.0,0.0,76,0.00,,SKC,0.00,VWS V14.01,2013-03-08 05:55:00,
2013-03-08 01:00:00,35.7,28.9,30.24,North,1,0.0,1.0,76,0.00,,SKC,0.00,VWS V14.01,2013-03-08 06:00:00,
2013-03-08 01:05:00,35.7,28.9,30.24,North,1,0.0,1.0,76,0.00,,SKC,0.00,VWS V14.01,2013-03-08 06:05:00,
2013-03-08 01:10:00,35.6,28.8,30.25,NNW,334,0.0,1.0,76,0.00,,SKC,0.00,VWS V14.01,2013-03-08 06:10:00,
2013-03-08 01:15:00,35.6,28.8,30.25,WNW,283,0.0,1.0,76,0.00,,SKC,0.00,VWS V14.01,2013-03-08 06:15:00,
2013-03-08 01:20:00,35.5,28.7,30.25,NW,316,0.0,3.0,76,0.00,,SKC,0.00,VWS V14.01,2013-03-08 06:20:00,
2013-03-08 01:25:00,35.4,28.6,30.25,NW,316,0.0,0.0,76,0.00,,SKC,0.00,VWS V14.01,2013-03-08 06:25:00,
2013-03-08 01:30:00,35.3,28.5,30.26,West,280,0.0,1.0,76,0.00,,SKC,0.00,VWS V14.01,2013-03-08 06:30:00,
2013-03-08 01:35:00,35.2,28.4,30.26,ENE,78,0.0,1.0,76,0.00,,SKC,0.00,VWS V14.01,2013-03-08 06:35:00,
2013-03-08 01:40:00,35.0,28.2,30.26,NW,316,0.0,1.0,76,0.00,,SKC,0.00,VWS V14.01,2013-03-08 06:40:00,
2013-03-08 01:45:00,35.0,28.5,30.26,NNE,27,0.0,3.0,77,0.00,,SKC,0.00,VWS V14.01,2013-03-08 06:45:00,
2013-03-08 01:50:00,34.9,28.4,30.26,North,8,0.0,2.0,77,0.00,,SKC,0.00,VWS V14.01,2013-03-08 06:50:00,
2013-03-08 01:55:00,34.8,28.6,30.26,North,5,1.0,1.0,78,0.00,,SKC,0.00,VWS V14.01,2013-03-08 06:55:00,
2013-03-08 02:00:00,34.7,28.5,30.26,NNW,342,0.0,2.0,78,0.00,,SKC,0.00,VWS V14.01,2013-03-08 07:00:00,
2013-03-08 02:05:00,34.7,28.5,30.26,NNW,330,0.0,2.0,78,0.00,,SKC,0.00,VWS V14.01,2013-03-08 07:05:00,
2013-03-08 02:10:00,34.5,28.4,30.26,NNW,330,0.0,1.0,78,0.00,,SKC,0.00,VWS V14.01,2013-03-08 07:10:00,
2013-03-08 02:15:00,34.5,28.4,30.27,North,349,0.0,2.0,78,0.00,,SKC,0.00,VWS V14.01,2013-03-08 07:15:00,
2013-03-08 02:20:00,34.3,28.5,30.27,NNW,341,1.0,1.0,79,0.00,,SKC,0.00,VWS V14.01,2013-03-08 07:20:00,
2013-03-08 02:25:00,34.1,28.3,30.27,North,11,0.0,1.0,79,0.00,,SKC,0.00,VWS V14.01,2013-03-08 07:25:00,
2013-03-08 02:30:00,33.9,28.1,30.27,North,358,0.0,1.0,79,0.00,,SKC,0.00,VWS V14.01,2013-03-08 07:30:00,
2013-03-08 02:35:00,33.7,28.2,30.27,WSW,245,0.0,0.0,80,0.00,,SKC,0.00,VWS V14.01,2013-03-08 07:35:00,
2013-03-08 02:40:00,33.5,28.0,30.27,WSW,245,0.0,0.0,80,0.00,,SKC,0.00,VWS V14.01,2013-03-08 07:40:00,
2013-03-08 02:45:00,33.2,28.0,30.27,WSW,245,0.0,0.0,81,0.00,,SKC,0.00,VWS V14.01,2013-03-08 07:45:00,
2013-03-08 02:50:00,33.0,28.1,30.27,WSW,245,0.0,1.0,82,0.00,,SKC,0.00,VWS V14.01,2013-03-08 07:50:00,
2013-03-08 02:55:00,32.7,27.8,30.27,WSW,245,0.0,0.0,82,0.00,,SKC,0.00,VWS V14.01,2013-03-08 07:55:00,
2013-03-08 03:00:00,32.4,27.8,30.27,WSW,245,0.0,0.0,83,0.00,,SKC,0.00,VWS V14.01,2013-03-08 08:00:00,
2013-03-08 03:05:00,32.3,27.7,30.27,WSW,253,0.0,1.0,83,0.00,,SKC,0.00,VWS V14.01,2013-03-08 08:05:00,
2013-03-08 03:10:00,32.2,27.6,30.27,North,354,0.0,1.0,83,0.00,,SKC,0.00,VWS V14.01,2013-03-08 08:10:00,
2013-03-08 03:15:00,32.1,27.5,30.27,North,354,0.0,0.0,83,0.00,,SKC,0.00,VWS V14.01,2013-03-08 08:15:00,
2013-03-08 03:20:00,31.9,27.6,30.28,North,354,0.0,0.0,84,0.00,,SKC,0.00,VWS V14.01,2013-03-08 08:20:00,
2013-03-08 03:25:00,31.6,27.3,30.28,North,354,0.0,0.0,84,0.00,,SKC,0.00,VWS V14.01,2013-03-08 08:25:00,
2013-03-08 03:30:00,31.4,27.4,30.28,North,354,0.0,0.0,85,0.00,,SKC,0.00,VWS V14.01,2013-03-08 08:30:00,
2013-03-08 03:35:00,31.2,27.2,30.28,North,354,0.0,0.0,85,0.00,,SKC,0.00,VWS V14.01,2013-03-08 08:35:00,
2013-03-08 03:40:00,31.0,27.3,30.28,North,359,0.0,1.0,86,0.00,,SKC,0.00,VWS V14.01,2013-03-08 08:40:00,
2013-03-08 03:45:00,30.9,27.2,30.28,North,358,0.0,0.0,86,0.00,,SKC,0.00,VWS V14.01,2013-03-08 08:45:00,
2013-03-08 03:50:00,30.9,27.2,30.28,North,358,0.0,0.0,86,0.00,,SKC,0.00,VWS V14.01,2013-03-08 08:50:00,
2013-03-08 03:55:00,30.7,27.0,30.28,North,356,0.0,0.0,86,0.00,,SKC,0.00,VWS V14.01,2013-03-08 08:55:00,
2013-03-08 04:00:00,30.5,27.1,30.28,North,359,0.0,0.0,87,0.00,,SKC,0.00,VWS V14.01,2013-03-08 09:00:00,
2013-03-08 04:05:00,30.5,27.4,30.28,North,358,0.0,0.0,88,0.00,,SKC,0.00,VWS V14.01,2013-03-08 09:05:00,
2013-03-08 04:10:00,30.4,27.5,30.28,North,356,0.0,0.0,89,0.00,,SKC,0.00,VWS V14.01,2013-03-08 09:10:00,
2013-03-08 04:15:00,30.2,27.4,30.28,North,358,0.0,0.0,89,0.00,,SKC,0.00,VWS V14.01,2013-03-08 09:15:00,
2013-03-08 04:20:00,30.0,27.2,30.28,North,1,0.0,1.0,89,0.00,,SKC,0.00,VWS V14.01,2013-03-08 09:20:00,
2013-03-08 04:25:00,30.2,27.4,30.28,North,1,0.0,1.0,89,0.00,,SKC,0.00,VWS V14.01,2013-03-08 09:25:00,
2013-03-08 04:30:00,30.2,27.1,30.28,North,1,0.0,0.0,88,0.00,,SKC,0.00,VWS V14.01,2013-03-08 09:30:00,
2013-03-08 04:35:00,30.1,27.0,30.28,West,262,0.0,1.0,88,0.00,,SKC,0.00,VWS V14.01,2013-03-08 09:35:00,
2013-03-08 04:40:00,30.0,26.9,30.28,West,262,0.0,0.0,88,0.00,,SKC,0.00,VWS V14.01,2013-03-08 09:40:00,
2013-03-08 04:45:00,29.8,26.7,30.28,West,262,0.0,0.0,88,0.00,,SKC,0.00,VWS V14.01,2013-03-08 09:45:00,
2013-03-08 04:50:00,30.0,27.4,30.28,West,262,0.0,0.0,90,0.00,,SKC,0.00,VWS V14.01,2013-03-08 09:50:00,
2013-03-08 04:55:00,29.7,26.9,30.28,West,262,0.0,0.0,89,0.00,,SKC,0.00,VWS V14.01,2013-03-08 09:55:00,
2013-03-08 05:00:00,29.5,26.7,30.28,West,262,0.0,0.0,89,0.00,,SKC,0.00,VWS V14.01,2013-03-08 10:00:00,
2013-03-08 05:05:00,29.4,26.8,30.28,West,262,0.0,0.0,90,0.00,,SKC,0.00,VWS V14.01,2013-03-08 10:05:00,
2013-03-08 05:10:00,29.2,26.6,30.28,West,262,0.0,0.0,90,0.00,,SKC,0.00,VWS V14.01,2013-03-08 10:10:00,
2013-03-08 05:15:00,29.1,26.8,30.29,West,262,0.0,1.0,91,0.00,,SKC,0.00,VWS V14.01,2013-03-08 10:15:00,
2013-03-08 05:20:00,29.1,26.8,30.29,West,262,0.0,0.0,91,0.00,,SKC,0.00,VWS V14.01,2013-03-08 10:20:00,
2013-03-08 05:25:00,28.9,26.6,30.29,West,262,0.0,0.0,91,0.00,,SKC,0.00,VWS V14.01,2013-03-08 10:25:00,
2013-03-08 05:30:00,28.7,26.4,30.29,West,262,0.0,0.0,91,0.00,,SKC,0.00,VWS V14.01,2013-03-08 10:30:00,
2013-03-08 05:35:00,28.5,26.5,30.30,West,262,0.0,0.0,92,0.00,,SKC,0.00,VWS V14.01,2013-03-08 10:35:00,
2013-03-08 05:40:00,28.3,26.3,30.30,West,262,0.0,0.0,92,0.00,,SKC,0.00,VWS V14.01,2013-03-08 10:40:00,
2013-03-08 05:45:00,28.2,26.2,30.30,West,262,0.0,0.0,92,0.00,,SKC,0.00,VWS V14.01,2013-03-08 10:45:00,
2013-03-08 05:50:00,28.1,26.1,30.30,West,262,0.0,0.0,92,0.00,,SKC,0.00,VWS V14.01,2013-03-08 10:50:00,
2013-03-08 05:56:00,28.1,26.3,30.30,West,262,0.0,0.0,93,0.00,,SKC,0.00,VWS V14.01,2013-03-08 10:56:00,
2013-03-08 06:01:00,28.3,26.8,30.31,West,262,0.0,0.0,94,0.00,,SKC,0.00,VWS V14.01,2013-03-08 11:01:00,
2013-03-08 06:06:00,28.2,26.4,30.31,West,262,0.0,0.0,93,0.00,,SKC,0.00,VWS V14.01,2013-03-08 11:06:00,
2013-03-08 06:11:00,28.1,26.3,30.31,West,262,0.0,0.0,93,0.00,,SKC,0.00,VWS V14.01,2013-03-08 11:11:00,
2013-03-08 06:16:00,28.0,26.2,30.31,West,262,0.0,0.0,93,0.00,,SKC,0.00,VWS V14.01,2013-03-08 11:16:00,
2013-03-08 06:21:00,28.1,26.6,30.32,West,262,0.0,0.0,94,0.00,,SKC,0.00,VWS V14.01,2013-03-08 11:21:00,
2013-03-08 06:26:00,27.8,26.0,30.32,West,262,0.0,0.0,93,0.00,,SKC,0.00,VWS V14.01,2013-03-08 11:26:00,
2013-03-08 06:31:00,27.9,26.4,30.32,West,262,0.0,0.0,94,0.00,,SKC,0.00,VWS V14.01,2013-03-08 11:31:00,
2013-03-08 06:36:00,28.1,26.6,30.33,West,262,0.0,0.0,94,0.00,,SKC,0.00,VWS V14.01,2013-03-08 11:36:00,
2013-03-08 06:41:00,28.1,26.6,30.33,West,262,0.0,0.0,94,0.00,,SKC,0.00,VWS V14.01,2013-03-08 11:41:00,
2013-03-08 06:46:00,28.1,26.6,30.32,NNE,21,0.0,1.0,94,0.00,,SKC,0.00,VWS V14.01,2013-03-08 11:46:00,
2013-03-08 06:51:00,28.1,26.6,30.33,NNE,22,0.0,0.0,94,0.00,,SKC,0.00,VWS V14.01,2013-03-08 11:51:00,
2013-03-08 06:56:00,28.8,27.5,30.33,NNE,22,0.0,0.0,95,0.00,,SKC,0.00,VWS V14.01,2013-03-08 11:56:00,
2013-03-08 07:01:00,28.9,27.4,30.33,NNE,22,0.0,0.0,94,0.00,,SKC,0.00,VWS V14.01,2013-03-08 12:01:00,
2013-03-08 07:06:00,28.5,27.0,30.33,NNE,22,0.0,0.0,94,0.00,,SKC,0.00,VWS V14.01,2013-03-08 12:06:00,
2013-03-08 07:11:00,28.3,26.8,30.33,NNE,21,0.0,0.0,94,0.00,,SKC,0.00,VWS V14.01,2013-03-08 12:11:00,
2013-03-08 07:16:00,28.3,26.8,30.33,NNE,21,0.0,0.0,94,0.00,,SKC,0.00,VWS V14.01,2013-03-08 12:16:00,
2013-03-08 07:21:00,28.2,26.7,30.33,NNE,20,0.0,0.0,94,0.00,,SKC,0.00,VWS V14.01,2013-03-08 12:21:00,
2013-03-08 07:26:00,28.2,26.7,30.33,NNE,20,0.0,0.0,94,0.00,,SKC,0.00,VWS V14.01,2013-03-08 12:26:00,
2013-03-08 07:31:00,28.4,26.9,30.33,NNE,20,0.0,0.0,94,0.00,,SKC,0.00,VWS V14.01,2013-03-08 12:31:00,
2013-03-08 07:36:00,28.9,27.4,30.33,NNE,20,0.0,0.0,94,0.00,,SKC,0.00,VWS V14.01,2013-03-08 12:36:00,
2013-03-08 07:41:00,29.4,27.9,30.33,NNE,20,0.0,0.0,94,0.00,,SKC,0.00,VWS V14.01,2013-03-08 12:41:00,
2013-03-08 07:46:00,30.6,29.3,30.33,NNE,20,0.0,0.0,95,0.00,,SKC,0.00,VWS V14.01,2013-03-08 12:46:00,
2013-03-08 07:51:00,31.2,29.1,30.33,NNE,20,0.0,0.0,92,0.00,,SKC,0.00,VWS V14.01,2013-03-08 12:51:00,
2013-03-08 07:56:00,31.7,28.8,30.33,NNE,20,0.0,0.0,89,0.00,,SKC,0.00,VWS V14.01,2013-03-08 12:56:00,
2013-03-08 08:01:00,31.8,28.4,30.33,NNE,20,0.0,0.0,87,0.00,,SKC,0.00,VWS V14.01,2013-03-08 13:01:00,
2013-03-08 08:06:00,32.3,28.9,30.33,NNE,20,0.0,0.0,87,0.00,,SKC,0.00,VWS V14.01,2013-03-08 13:06:00,
2013-03-08 08:11:00,32.8,29.6,30.33,NNE,20,0.0,0.0,88,0.00,,SKC,0.00,VWS V14.01,2013-03-08 13:11:00,
2013-03-08 08:16:00,33.5,29.8,30.34,NE,41,0.0,1.0,86,0.00,,SKC,0.00,VWS V14.01,2013-03-08 13:16:00,
2013-03-08 08:21:00,34.1,30.6,30.33,NE,41,0.0,0.0,87,0.00,,SKC,0.00,VWS V14.01,2013-03-08 13:21:00,
2013-03-08 08:26:00,34.6,30.0,30.34,NE,39,0.0,1.0,83,0.00,,SKC,0.00,VWS V14.01,2013-03-08 13:26:00,
2013-03-08 08:31:00,35.3,30.7,30.34,NE,40,0.0,0.0,83,0.00,,SKC,0.00,VWS V14.01,2013-03-08 13:31:00,
2013-03-08 08:36:00,35.9,31.0,30.34,NNE,30,0.0,0.0,82,0.00,,SKC,0.00,VWS V14.01,2013-03-08 13:36:00,
2013-03-08 08:41:00,36.9,31.6,30.34,NNE,32,0.0,0.0,81,0.00,,SKC,0.00,VWS V14.01,2013-03-08 13:41:00,
2013-03-08 08:46:00,37.6,30.7,30.34,NNE,32,0.0,1.0,76,0.00,,SKC,0.00,VWS V14.01,2013-03-08 13:46:00,
2013-03-08 08:51:00,38.2,31.3,30.34,NNE,30,2.0,4.0,76,0.00,,SKC,0.00,VWS V14.01,2013-03-08 13:51:00,
2013-03-08 08:56:00,38.4,29.8,30.34,NE,54,2.0,4.0,71,0.00,,SKC,0.00,VWS V14.01,2013-03-08 13:56:00,
2013-03-08 09:01:00,38.5,29.6,30.34,NNE,27,0.0,2.0,70,0.00,,SKC,0.00,VWS V14.01,2013-03-08 14:01:00,
2013-03-08 09:06:00,38.9,29.2,30.34,ENE,74,0.0,2.0,68,0.00,,SKC,0.00,VWS V14.01,2013-03-08 14:06:00,
2013-03-08 09:11:00,39.3,29.3,30.34,ESE,105,1.0,2.0,67,0.00,,SKC,0.00,VWS V14.01,2013-03-08 14:11:00,
2013-03-08 09:16:00,39.9,29.5,30.35,East,92,0.0,2.0,66,0.00,,SKC,0.00,VWS V14.01,2013-03-08 14:16:00,
2013-03-08 09:21:00,40.2,29.0,30.34,West,259,0.0,2.0,64,0.00,,SKC,0.00,VWS V14.01,2013-03-08 14:21:00,
2013-03-08 09:26:00,40.2,29.0,30.34,NE,50,0.0,3.0,64,0.00,,SKC,0.00,VWS V14.01,2013-03-08 14:26:00,
2013-03-08 09:31:00,40.9,29.7,30.34,NE,55,1.0,1.0,64,0.00,,SKC,0.00,VWS V14.01,2013-03-08 14:31:00,
2013-03-08 09:36:00,41.2,29.2,30.34,NNE,14,0.0,3.0,62,0.00,,SKC,0.00,VWS V14.01,2013-03-08 14:36:00,
2013-03-08 09:41:00,41.8,29.8,30.34,East,91,1.0,1.0,62,0.00,,SKC,0.00,VWS V14.01,2013-03-08 14:41:00,
2013-03-08 09:46:00,41.8,29.0,30.35,ENE,63,0.0,3.0,60,0.00,,SKC,0.00,VWS V14.01,2013-03-08 14:46:00,
2013-03-08 09:51:00,41.9,28.6,30.34,North,4,1.0,2.0,59,0.00,,SKC,0.00,VWS V14.01,2013-03-08 14:51:00,
2013-03-08 09:56:00,42.1,28.4,30.34,North,354,1.0,2.0,58,0.00,,SKC,0.00,VWS V14.01,2013-03-08 14:56:00,
2013-03-08 10:01:00,42.7,28.5,30.34,East,98,3.0,3.0,57,0.00,,SKC,0.00,VWS V14.01,2013-03-08 15:01:00,
2013-03-08 10:06:00,43.3,29.1,30.34,NNE,30,2.0,2.0,57,0.00,,SKC,0.00,VWS V14.01,2013-03-08 15:06:00,
2013-03-08 10:11:00,43.5,29.7,30.34,North,355,0.0,2.0,58,0.00,,SKC,0.00,VWS V14.01,2013-03-08 15:11:00,
2013-03-08 10:16:00,44.3,29.6,30.35,NE,56,2.0,3.0,56,0.00,,SKC,0.00,VWS V14.01,2013-03-08 15:16:00,
2013-03-08 10:21:00,44.4,29.3,30.35,East,101,0.0,2.0,55,0.00,,SKC,0.00,VWS V14.01,2013-03-08 15:21:00,
2013-03-08 10:26:00,45.1,29.5,30.34,ESE,115,0.0,2.0,54,0.00,,SKC,0.00,VWS V14.01,2013-03-08 15:26:00,
2013-03-08 10:31:00,45.8,30.1,30.34,East,98,0.0,0.0,54,0.00,,SKC,0.00,VWS V14.01,2013-03-08 15:31:00,
2013-03-08 10:36:00,46.2,29.6,30.34,NW,326,0.0,3.0,52,0.00,,SKC,0.00,VWS V14.01,2013-03-08 15:36:00,
2013-03-08 10:41:00,46.2,29.1,30.34,East,80,2.0,4.0,51,0.00,,SKC,0.00,VWS V14.01,2013-03-08 15:41:00,
2013-03-08 10:46:00,46.8,30.1,30.34,NNE,16,1.0,2.0,52,0.00,,SKC,0.00,VWS V14.01,2013-03-08 15:46:00,
2013-03-08 10:51:00,47.3,30.1,30.34,SW,233,1.0,3.0,51,0.00,,SKC,0.00,VWS V14.01,2013-03-08 15:51:00,
2013-03-08 10:56:00,48.1,29.9,30.34,NNE,29,0.0,4.0,49,0.00,,SKC,0.00,VWS V14.01,2013-03-08 15:56:00,
2013-03-08 11:01:00,48.2,30.5,30.34,NNW,344,2.0,3.0,50,0.00,,SKC,0.00,VWS V14.01,2013-03-08 16:01:00,
2013-03-08 11:06:00,48.2,30.5,30.33,North,6,0.0,4.0,50,0.00,,SKC,0.00,VWS V14.01,2013-03-08 16:06:00,
2013-03-08 11:11:00,48.6,30.8,30.34,SE,127,1.0,4.0,50,0.00,,SKC,0.00,VWS V14.01,2013-03-08 16:11:00,
2013-03-08 11:16:00,49.7,31.3,30.34,South,174,2.0,4.0,49,0.00,,SKC,0.00,VWS V14.01,2013-03-08 16:16:00,
2013-03-08 11:21:00,50.6,31.1,30.33,SW,226,5.0,6.0,47,0.00,,SKC,0.00,VWS V14.01,2013-03-08 16:21:00,
2013-03-08 11:26:00,50.8,31.3,30.33,SW,221,2.0,4.0,47,0.00,,SKC,0.00,VWS V14.01,2013-03-08 16:26:00,
2013-03-08 11:31:00,51.0,31.0,30.33,NW,321,0.0,3.0,46,0.00,,SKC,0.00,VWS V14.01,2013-03-08 16:31:00,
2013-03-08 11:36:00,51.7,31.1,30.33,South,181,1.0,3.0,45,0.00,,SKC,0.00,VWS V14.01,2013-03-08 16:36:00,
2013-03-08 11:41:00,52.0,29.6,30.33,ENE,78,1.0,5.0,42,0.00,,SKC,0.00,VWS V14.01,2013-03-08 16:41:00,
2013-03-08 11:46:00,52.9,31.6,30.33,NNE,12,3.0,3.0,44,0.00,,SKC,0.00,VWS V14.01,2013-03-08 16:46:00,
2013-03-08 11:51:00,52.8,30.4,30.33,NE,41,0.0,4.0,42,0.00,,SKC,0.00,VWS V14.01,2013-03-08 16:51:00,
2013-03-08 11:56:00,53.3,30.8,30.33,NW,305,1.0,4.0,42,0.00,,SKC,0.00,VWS V14.01,2013-03-08 16:56:00,
2013-03-08 12:01:00,54.4,30.0,30.33,SSW,204,0.0,4.0,39,0.00,,SKC,0.00,VWS V14.01,2013-03-08 17:01:00,
2013-03-08 12:06:00,55.2,31.9,30.33,WSW,253,1.0,3.0,41,0.00,,SKC,0.00,VWS V14.01,2013-03-08 17:06:00,
2013-03-08 12:11:00,56.0,29.4,30.33,WSW,247,2.0,5.0,36,0.00,,SKC,0.00,VWS V14.01,2013-03-08 17:11:00,
2013-03-08 12:16:00,56.2,30.3,30.33,SW,232,3.0,8.0,37,0.00,,SKC,0.00,VWS V14.01,2013-03-08 17:16:00,
2013-03-08 12:21:00,55.9,30.0,30.33,NW,308,1.0,4.0,37,0.00,,SKC,0.00,VWS V14.01,2013-03-08 17:21:00,
2013-03-08 12:26:00,55.6,30.4,30.32,West,263,2.0,6.0,38,0.00,,SKC,0.00,VWS V14.01,2013-03-08 17:26:00,
2013-03-08 12:31:00,55.7,29.2,30.32,North,11,4.0,5.0,36,0.00,,SKC,0.00,VWS V14.01,2013-03-08 17:31:00,
2013-03-08 12:36:00,56.1,29.5,30.32,SW,235,3.0,5.0,36,0.00,,SKC,0.00,VWS V14.01,2013-03-08 17:36:00,
2013-03-08 12:41:00,56.8,29.5,30.32,WSW,252,3.0,5.0,35,0.00,,SKC,0.00,VWS V14.01,2013-03-08 17:41:00,
2013-03-08 12:46:00,56.8,29.5,30.32,SW,232,2.0,4.0,35,0.00,,SKC,0.00,VWS V14.01,2013-03-08 17:46:00,
2013-03-08 12:51:00,56.6,29.3,30.31,SW,224,2.0,4.0,35,0.00,,SKC,0.00,VWS V14.01,2013-03-08 17:51:00,
2013-03-08 12:56:00,57.0,28.9,30.31,NE,44,3.0,3.0,34,0.00,,SKC,0.00,VWS V14.01,2013-03-08 17:56:00,
2013-03-08 13:01:00,57.1,27.5,30.31,SW,217,1.0,5.0,32,0.00,,SKC,0.00,VWS V14.01,2013-03-08 18:01:00,
2013-03-08 13:06:00,57.4,28.5,30.30,North,353,3.0,3.0,33,0.00,,SKC,0.00,VWS V14.01,2013-03-08 18:06:00,
2013-03-08 13:11:00,58.1,28.4,30.29,SW,231,2.0,5.0,32,0.00,,SKC,0.00,VWS V14.01,2013-03-08 18:11:00,
2013-03-08 13:16:00,59.1,30.0,30.29,NNW,340,2.0,3.0,33,0.00,,SKC,0.00,VWS V14.01,2013-03-08 18:16:00,
2013-03-08 13:21:00,59.3,29.5,30.28,West,269,2.0,4.0,32,0.00,,SKC,0.00,VWS V14.01,2013-03-08 18:21:00,
2013-03-08 13:26:00,59.5,28.9,30.28,NNW,332,1.0,5.0,31,0.00,,SKC,0.00,VWS V14.01,2013-03-08 18:26:00,
2013-03-08 13:31:00,59.9,28.4,30.28,WSW,238,1.0,4.0,30,0.00,,SKC,0.00,VWS V14.01,2013-03-08 18:31:00,
2013-03-08 13:36:00,59.9,30.0,30.28,West,271,1.0,3.0,32,0.00,,SKC,0.00,VWS V14.01,2013-03-08 18:36:00,
2013-03-08 13:41:00,60.1,26.9,30.27,WSW,252,4.0,6.0,28,0.00,,SKC,0.00,VWS V14.01,2013-03-08 18:41:00,
2013-03-08 13:46:00,60.0,27.7,30.26,SW,222,1.0,4.0,29,0.00,,SKC,0.00,VWS V14.01,2013-03-08 18:46:00,
2013-03-08 13:51:00,60.1,26.9,30.26,NW,309,2.0,4.0,28,0.00,,SKC,0.00,VWS V14.01,2013-03-08 18:51:00,
2013-03-08 13:56:00,60.7,27.4,30.26,West,269,1.0,5.0,28,0.00,,SKC,0.00,VWS V14.01,2013-03-08 18:56:00,
2013-03-08 14:01:00,60.8,26.6,30.25,North,7,2.0,4.0,27,0.00,,SKC,0.00,VWS V14.01,2013-03-08 19:01:00,
2013-03-08 14:06:00,60.0,26.8,30.25,NNW,348,3.0,4.0,28,0.00,,SKC,0.00,VWS V14.01,2013-03-08 19:06:00,
2013-03-08 14:11:00,59.8,26.6,30.25,SW,233,1.0,3.0,28,0.00,,SKC,0.00,VWS V14.01,2013-03-08 19:11:00,
2013-03-08 14:16:00,60.9,27.6,30.25,West,266,1.0,3.0,28,0.00,,SKC,0.00,VWS V14.01,2013-03-08 19:16:00,
2013-03-08 14:21:00,61.1,27.8,30.25,WSW,240,1.0,5.0,28,0.00,,SKC,0.00,VWS V14.01,2013-03-08 19:21:00,
2013-03-08 14:26:00,60.9,27.6,30.25,NNW,335,3.0,3.0,28,0.00,,SKC,0.00,VWS V14.01,2013-03-08 19:26:00,
2013-03-08 14:31:00,61.1,28.6,30.24,West,271,3.0,5.0,29,0.00,,SKC,0.00,VWS V14.01,2013-03-08 19:31:00,
2013-03-08 14:36:00,60.9,27.6,30.24,NW,316,2.0,5.0,28,0.00,,SKC,0.00,VWS V14.01,2013-03-08 19:36:00,
2013-03-08 14:41:00,60.8,29.2,30.24,West,280,1.0,2.0,30,0.00,,SKC,0.00,VWS V14.01,2013-03-08 19:41:00,
2013-03-08 14:46:00,61.5,29.8,30.24,North,1,0.0,4.0,30,0.00,,SKC,0.00,VWS V14.01,2013-03-08 19:46:00,
2013-03-08 14:51:00,61.7,28.3,30.24,NE,53,0.0,4.0,28,0.00,,SKC,0.00,VWS V14.01,2013-03-08 19:51:00,
2013-03-08 14:56:00,62.4,28.9,30.24,NNW,348,1.0,3.0,28,0.00,,SKC,0.00,VWS V14.01,2013-03-08 19:56:00,
2013-03-08 15:01:00,61.6,29.1,30.24,NNW,334,1.0,6.0,29,0.00,,SKC,0.00,VWS V14.01,2013-03-08 20:01:00,
2013-03-08 15:06:00,61.9,28.5,30.24,NNE,30,3.0,5.0,28,0.00,,SKC,0.00,VWS V14.01,2013-03-08 20:06:00,
2013-03-08 15:11:00,60.9,28.5,30.23,NNW,330,1.0,4.0,29,0.00,,SKC,0.00,VWS V14.01,2013-03-08 20:11:00,
2013-03-08 15:16:00,60.7,28.3,30.23,WNW,301,1.0,2.0,29,0.00,,SKC,0.00,VWS V14.01,2013-03-08 20:16:00,
2013-03-08 15:21:00,61.6,29.1,30.24,SSW,200,2.0,5.0,29,0.00,,SKC,0.00,VWS V14.01,2013-03-08 20:21:00,
2013-03-08 15:26:00,61.8,28.4,30.23,SW,231,2.0,7.0,28,0.00,,SKC,0.00,VWS V14.01,2013-03-08 20:26:00,
2013-03-08 15:31:00,62.1,28.6,30.23,WSW,240,5.0,6.0,28,0.00,,SKC,0.00,VWS V14.01,2013-03-08 20:31:00,
2013-03-08 15:36:00,62.5,30.7,30.23,WSW,249,2.0,4.0,30,0.00,,SKC,0.00,VWS V14.01,2013-03-08 20:36:00,
2013-03-08 15:41:00,62.9,27.5,30.23,South,174,0.0,3.0,26,0.00,,SKC,0.00,VWS V14.01,2013-03-08 20:41:00,
2013-03-08 15:46:00,63.5,29.0,30.23,WSW,256,1.0,3.0,27,0.00,,SKC,0.00,VWS V14.01,2013-03-08 20:46:00,
2013-03-08 15:51:00,63.4,27.0,30.23,North,4,3.0,4.0,25,0.00,,SKC,0.00,VWS V14.01,2013-03-08 20:51:00,
2013-03-08 15:56:00,62.8,28.4,30.23,SSW,204,1.0,6.0,27,0.00,,SKC,0.00,VWS V14.01,2013-03-08 20:56:00,
2013-03-08 16:01:00,63.2,27.8,30.23,WSW,249,4.0,6.0,26,0.00,,SKC,0.00,VWS V14.01,2013-03-08 21:01:00,
2013-03-08 16:06:00,63.6,27.2,30.23,West,264,3.0,5.0,25,0.00,,SKC,0.00,VWS V14.01,2013-03-08 21:06:00,
2013-03-08 16:11:00,63.8,26.3,30.23,West,267,0.0,5.0,24,0.00,,SKC,0.00,VWS V14.01,2013-03-08 21:11:00,
2013-03-08 16:16:00,64.2,24.6,30.23,SW,223,2.0,4.0,22,0.00,,SKC,0.00,VWS V14.01,2013-03-08 21:16:00,
2013-03-08 16:21:00,64.1,26.6,30.23,SW,224,1.0,3.0,24,0.00,,SKC,0.00,VWS V14.01,2013-03-08 21:21:00,
2013-03-08 16:26:00,64.2,25.7,30.23,SSW,195,3.0,5.0,23,0.00,,SKC,0.00,VWS V14.01,2013-03-08 21:26:00,
2013-03-08 16:31:00,63.9,25.4,30.23,WSW,242,3.0,6.0,23,0.00,,SKC,0.00,VWS V14.01,2013-03-08 21:31:00,
2013-03-08 16:36:00,63.7,26.3,30.23,West,264,4.0,6.0,24,0.00,,SKC,0.00,VWS V14.01,2013-03-08 21:36:00,
2013-03-08 16:41:00,63.2,23.8,30.23,SW,221,3.0,5.0,22,0.00,,SKC,0.00,VWS V14.01,2013-03-08 21:41:00,
2013-03-08 16:46:00,63.1,24.7,30.23,WSW,243,4.0,7.0,23,0.00,,SKC,0.00,VWS V14.01,2013-03-08 21:46:00,
2013-03-08 16:51:00,63.4,25.0,30.24,West,260,1.0,5.0,23,0.00,,SKC,0.00,VWS V14.01,2013-03-08 21:51:00,
2013-03-08 16:56:00,63.6,25.1,30.24,SW,226,4.0,7.0,23,0.00,,SKC,0.00,VWS V14.01,2013-03-08 21:56:00,
2013-03-08 17:01:00,63.5,25.1,30.24,SW,229,3.0,4.0,23,0.00,,SKC,0.00,VWS V14.01,2013-03-08 22:01:00,
2013-03-08 17:06:00,63.3,24.9,30.23,WSW,240,3.0,6.0,23,0.00,,SKC,0.00,VWS V14.01,2013-03-08 22:06:00,
2013-03-08 17:11:00,62.9,26.6,30.24,NW,315,0.0,7.0,25,0.00,,SKC,0.00,VWS V14.01,2013-03-08 22:11:00,
2013-03-08 17:16:00,63.0,25.7,30.24,NNW,332,0.0,3.0,24,0.00,,SKC,0.00,VWS V14.01,2013-03-08 22:16:00,
2013-03-08 17:21:00,63.2,25.8,30.24,WSW,248,2.0,3.0,24,0.00,,SKC,0.00,VWS V14.01,2013-03-08 22:21:00,
2013-03-08 17:26:00,63.1,26.7,30.24,WNW,293,1.0,4.0,25,0.00,,SKC,0.00,VWS V14.01,2013-03-08 22:26:00,
2013-03-08 17:31:00,63.0,26.6,30.24,SW,227,1.0,3.0,25,0.00,,SKC,0.00,VWS V14.01,2013-03-08 22:31:00,
2013-03-08 17:36:00,62.8,26.5,30.23,WSW,239,1.0,3.0,25,0.00,,SKC,0.00,VWS V14.01,2013-03-08 22:36:00,
2013-03-08 17:41:00,62.5,26.2,30.23,NNW,339,0.0,2.0,25,0.00,,SKC,0.00,VWS V14.01,2013-03-08 22:41:00,
2013-03-08 17:46:00,61.9,26.7,30.24,WSW,252,1.0,3.0,26,0.00,,SKC,0.00,VWS V14.01,2013-03-08 22:46:00,
2013-03-08 17:51:00,61.3,27.1,30.23,WSW,240,3.0,4.0,27,0.00,,SKC,0.00,VWS V14.01,2013-03-08 22:51:00,
2013-03-08 17:56:00,60.7,26.5,30.24,West,278,1.0,5.0,27,0.00,,SKC,0.00,VWS V14.01,2013-03-08 22:56:00,
2013-03-08 18:01:00,60.6,27.3,30.24,West,264,0.0,4.0,28,0.00,,SKC,0.00,VWS V14.01,2013-03-08 23:01:00,
2013-03-08 18:06:00,60.6,27.3,30.24,SW,233,1.0,4.0,28,0.00,,SKC,0.00,VWS V14.01,2013-03-08 23:06:00,
2013-03-08 18:11:00,60.5,27.3,30.25,WSW,257,1.0,1.0,28,0.00,,SKC,0.00,VWS V14.01,2013-03-08 23:11:00,
2013-03-08 18:16:00,60.1,27.8,30.25,WSW,256,3.0,4.0,29,0.00,,SKC,0.00,VWS V14.01,2013-03-08 23:16:00,
2013-03-08 18:21:00,59.7,27.4,30.25,West,277,1.0,3.0,29,0.00,,SKC,0.00,VWS V14.01,2013-03-08 23:21:00,
2013-03-08 18:26:00,59.0,26.8,30.25,WSW,246,1.0,1.0,29,0.00,,SKC,0.00,VWS V14.01,2013-03-08 23:26:00,
2013-03-08 18:31:00,58.4,27.1,30.25,WNW,288,0.0,1.0,30,0.00,,SKC,0.00,VWS V14.01,2013-03-08 23:31:00,
2013-03-08 18:36:00,57.8,26.6,30.25,West,267,0.0,2.0,30,0.00,,SKC,0.00,VWS V14.01,2013-03-08 23:36:00,
2013-03-08 18:41:00,57.3,27.0,30.24,NW,316,0.0,1.0,31,0.00,,SKC,0.00,VWS V14.01,2013-03-08 23:41:00,
2013-03-08 18:46:00,56.8,26.5,30.24,NW,313,0.0,2.0,31,0.00,,SKC,0.00,VWS V14.01,2013-03-08 23:46:00,
2013-03-08 18:51:00,56.3,26.1,30.24,NW,323,0.0,0.0,31,0.00,,SKC,0.00,VWS V14.01,2013-03-08 23:51:00,
2013-03-08 18:56:00,56.0,25.8,30.24,NNW,333,0.0,2.0,31,0.00,,SKC,0.00,VWS V14.01,2013-03-08 23:56:00,
2013-03-08 19:01:00,55.6,26.2,30.24,NNW,330,0.0,1.0,32,0.00,,SKC,0.00,VWS V14.01,2013-03-09 00:01:00,
2013-03-08 19:06:00,55.1,25.8,30.24,WNW,287,0.0,1.0,32,0.00,,SKC,0.00,VWS V14.01,2013-03-09 00:06:00,
2013-03-08 19:11:00,54.7,25.4,30.24,WNW,290,0.0,1.0,32,0.00,,SKC,0.00,VWS V14.01,2013-03-09 00:11:00,
2013-03-08 19:16:00,54.3,25.1,30.25,NW,323,1.0,2.0,32,0.00,,SKC,0.00,VWS V14.01,2013-03-09 00:16:00,
2013-03-08 19:21:00,54.1,24.2,30.25,NNW,334,0.0,3.0,31,0.00,,SKC,0.00,VWS V14.01,2013-03-09 00:21:00,
2013-03-08 19:26:00,53.8,24.6,30.26,NW,309,0.0,1.0,32,0.00,,SKC,0.00,VWS V14.01,2013-03-09 00:26:00,
2013-03-08 19:31:00,53.5,24.4,30.26,NW,304,0.0,1.0,32,0.00,,SKC,0.00,VWS V14.01,2013-03-09 00:31:00,
2013-03-08 19:36:00,53.2,24.9,30.26,NW,309,0.0,0.0,33,0.00,,SKC,0.00,VWS V14.01,2013-03-09 00:36:00,
2013-03-08 19:41:00,52.9,24.6,30.27,West,273,0.0,1.0,33,0.00,,SKC,0.00,VWS V14.01,2013-03-09 00:41:00,
2013-03-08 19:46:00,52.7,24.4,30.27,West,263,0.0,2.0,33,0.00,,SKC,0.00,VWS V14.01,2013-03-09 00:46:00,
2013-03-08 19:51:00,52.4,24.2,30.26,NW,316,0.0,2.0,33,0.00,,SKC,0.00,VWS V14.01,2013-03-09 00:51:00,
2013-03-08 19:56:00,52.2,24.0,30.26,NNW,330,1.0,1.0,33,0.00,,SKC,0.00,VWS V14.01,2013-03-09 00:56:00,
2013-03-08 20:01:00,52.1,23.9,30.26,NNW,328,0.0,2.0,33,0.00,,SKC,0.00,VWS V14.01,2013-03-09 01:01:00,
2013-03-08 20:06:00,51.9,23.7,30.26,NW,313,0.0,2.0,33,0.00,,SKC,0.00,VWS V14.01,2013-03-09 01:06:00,
2013-03-08 20:11:00,51.7,23.5,30.25,NW,324,0.0,1.0,33,0.00,,SKC,0.00,VWS V14.01,2013-03-09 01:11:00,
2013-03-08 20:16:00,51.4,23.3,30.25,NW,326,0.0,1.0,33,0.00,,SKC,0.00,VWS V14.01,2013-03-09 01:16:00,
2013-03-08 20:21:00,51.1,23.7,30.25,NW,326,0.0,1.0,34,0.00,,SKC,0.00,VWS V14.01,2013-03-09 01:21:00,
2013-03-08 20:26:00,50.9,23.5,30.25,NW,326,0.0,1.0,34,0.00,,SKC,0.00,VWS V14.01,2013-03-09 01:26:00,
2013-03-08 20:31:00,50.6,23.3,30.25,NW,326,0.0,0.0,34,0.00,,SKC,0.00,VWS V14.01,2013-03-09 01:31:00,
2013-03-08 20:36:00,50.5,23.2,30.26,NW,316,0.0,1.0,34,0.00,,SKC,0.00,VWS V14.01,2013-03-09 01:36:00,
2013-03-08 20:41:00,50.3,23.0,30.25,NW,316,0.0,0.0,34,0.00,,SKC,0.00,VWS V14.01,2013-03-09 01:41:00,
2013-03-08 20:46:00,50.0,22.8,30.25,NW,316,0.0,0.0,34,0.00,,SKC,0.00,VWS V14.01,2013-03-09 01:46:00,
2013-03-08 20:51:00,49.6,23.1,30.25,NW,316,0.0,0.0,35,0.00,,SKC,0.00,VWS V14.01,2013-03-09 01:51:00,
2013-03-08 20:56:00,49.3,22.8,30.25,NW,316,0.0,0.0,35,0.00,,SKC,0.00,VWS V14.01,2013-03-09 01:56:00,
2013-03-08 21:01:00,48.9,22.5,30.25,NW,316,0.0,0.0,35,0.00,,SKC,0.00,VWS V14.01,2013-03-09 02:01:00,
2013-03-08 21:06:00,48.5,23.4,30.25,NW,316,0.0,0.0,37,0.00,,SKC,0.00,VWS V14.01,2013-03-09 02:06:00,
2013-03-08 21:11:00,48.1,23.1,30.25,NW,316,0.0,0.0,37,0.00,,SKC,0.00,VWS V14.01,2013-03-09 02:11:00,
2013-03-08 21:16:00,47.9,23.5,30.25,NW,316,0.0,0.0,38,0.00,,SKC,0.00,VWS V14.01,2013-03-09 02:16:00,
2013-03-08 21:21:00,47.6,23.3,30.25,NW,316,0.0,0.0,38,0.00,,SKC,0.00,VWS V14.01,2013-03-09 02:21:00,
2013-03-08 21:26:00,47.1,24.0,30.25,NW,316,0.0,0.0,40,0.00,,SKC,0.00,VWS V14.01,2013-03-09 02:26:00,
2013-03-08 21:31:00,46.7,24.3,30.26,NW,316,0.0,0.0,41,0.00,,SKC,0.00,VWS V14.01,2013-03-09 02:31:00,
2013-03-08 21:36:00,46.4,22.8,30.26,NW,316,0.0,0.0,39,0.00,,SKC,0.00,VWS V14.01,2013-03-09 02:36:00,
2013-03-08 21:41:00,46.2,23.8,30.26,NW,316,0.0,0.0,41,0.00,,SKC,0.00,VWS V14.01,2013-03-09 02:41:00,
2013-03-08 21:46:00,46.0,24.8,30.26,NW,316,0.0,0.0,43,0.00,,SKC,0.00,VWS V14.01,2013-03-09 02:46:00,
2013-03-08 21:51:00,45.6,24.4,30.26,NW,316,0.0,0.0,43,0.00,,SKC,0.00,VWS V14.01,2013-03-09 02:51:00,
2013-03-08 21:56:00,45.5,23.8,30.26,NW,316,0.0,0.0,42,0.00,,SKC,0.00,VWS V14.01,2013-03-09 02:56:00,
2013-03-08 22:01:00,45.6,24.4,30.26,NW,316,0.0,0.0,43,0.00,,SKC,0.00,VWS V14.01,2013-03-09 03:01:00,
2013-03-08 22:06:00,45.3,25.2,30.26,NW,316,0.0,0.0,45,0.00,,SKC,0.00,VWS V14.01,2013-03-09 03:06:00,
2013-03-08 22:11:00,44.8,23.1,30.26,NW,316,0.0,0.0,42,0.00,,SKC,0.00,VWS V14.01,2013-03-09 03:11:00,
2013-03-08 22:16:00,44.2,22.6,30.27,NW,316,0.0,0.0,42,0.00,,SKC,0.00,VWS V14.01,2013-03-09 03:16:00,
2013-03-08 22:21:00,43.6,22.6,30.27,NW,316,0.0,0.0,43,0.00,,SKC,0.00,VWS V14.01,2013-03-09 03:21:00,
2013-03-08 22:26:00,43.2,23.8,30.27,NW,316,0.0,0.0,46,0.00,,SKC,0.00,VWS V14.01,2013-03-09 03:26:00,
2013-03-08 22:31:00,43.1,25.3,30.27,NW,316,0.0,0.0,49,0.00,,SKC,0.00,VWS V14.01,2013-03-09 03:31:00,
2013-03-08 22:36:00,43.0,24.2,30.26,NW,316,0.0,0.0,47,0.00,,SKC,0.00,VWS V14.01,2013-03-09 03:36:00,
2013-03-08 22:41:00,43.0,27.5,30.26,NNW,340,0.0,1.0,54,0.00,,SKC,0.00,VWS V14.01,2013-03-09 03:41:00,
2013-03-08 22:46:00,42.7,26.8,30.26,NNW,340,0.0,0.0,53,0.00,,SKC,0.00,VWS V14.01,2013-03-09 03:46:00,
2013-03-08 22:51:00,42.3,25.0,30.26,NNW,340,0.0,0.0,50,0.00,,SKC,0.00,VWS V14.01,2013-03-09 03:51:00,
2013-03-08 22:56:00,42.0,25.2,30.26,NNW,340,0.0,0.0,51,0.00,,SKC,0.00,VWS V14.01,2013-03-09 03:56:00,
2013-03-08 23:01:00,41.7,24.0,30.27,NNW,340,0.0,0.0,49,0.00,,SKC,0.00,VWS V14.01,2013-03-09 04:01:00,
2013-03-08 23:06:00,41.6,24.4,30.27,NNW,340,0.0,0.0,50,0.00,,SKC,0.00,VWS V14.01,2013-03-09 04:06:00,
2013-03-08 23:11:00,41.5,24.7,30.27,NNW,340,0.0,0.0,51,0.00,,SKC,0.00,VWS V14.01,2013-03-09 04:11:00,
2013-03-08 23:16:00,41.4,24.6,30.27,NNW,340,0.0,0.0,51,0.00,,SKC,0.00,VWS V14.01,2013-03-09 04:16:00,
2013-03-08 23:21:00,41.1,25.3,30.27,NNW,340,0.0,0.0,53,0.00,,SKC,0.00,VWS V14.01,2013-03-09 04:21:00,
2013-03-08 23:26:00,41.2,25.8,30.26,NNW,340,0.0,0.0,54,0.00,,SKC,0.00,VWS V14.01,2013-03-09 04:26:00,
2013-03-08 23:31:00,41.3,25.9,30.26,NNE,13,1.0,1.0,54,0.00,,SKC,0.00,VWS V14.01,2013-03-09 04:31:00,
2013-03-08 23:36:00,41.2,25.8,30.26,NNE,13,0.0,1.0,54,0.00,,SKC,0.00,VWS V14.01,2013-03-09 04:36:00,
2013-03-08 23:41:00,41.0,27.0,30.26,NNE,13,0.0,1.0,57,0.00,,SKC,0.00,VWS V14.01,2013-03-09 04:41:00,
2013-03-08 23:46:00,40.6,26.6,30.26,NNE,13,0.0,0.0,57,0.00,,SKC,0.00,VWS V14.01,2013-03-09 04:46:00,
2013-03-08 23:51:00,40.1,25.7,30.25,NNE,13,0.0,0.0,56,0.00,,SKC,0.00,VWS V14.01,2013-03-09 04:51:00,
2013-03-08 23:56:00,39.5,25.1,30.26,NNE,13,0.0,0.0,56,0.00,,SKC,0.00,VWS V14.01,2013-03-09 04:56:00,